{"data":{"norad_id":61534,"intl_designator":"2024-184C","name":"STARLINK-11338 [DTC]","alt_names":[],"object_type":"PAYLOAD","status":"ACTIVE","operator":null,"country":"US","launch_date":"2024-10-15","launch_site_code":"AFWTR","launch_vehicle":null,"mission":null,"orbit_class":"UNKNOWN","rcs_meters":null,"size_class":null,"mass_kg":null,"dimensions":null,"purposes":["comms"],"wikipedia_slug":null,"has_3d_model":false,"image_url":null,"decayed_at":null,"tle_current":{"epoch":"2026-05-25T04:47:04.125120Z","epoch_age_seconds":51793,"freshness":"FRESH","line1":"1 61534U 24184C   26145.19935330  .00000843  00000+0  11808-4 0  9995","line2":"2 61534  53.1612 219.1267 0000788  99.3332 260.7775 15.69710308 92431","mean_motion":15.69710308,"eccentricity":7.88e-5,"inclination_deg":53.1612,"raan_deg":219.1267,"arg_perigee_deg":99.3332,"mean_anomaly_deg":260.7775,"bstar":1.1808e-5,"rev_number":9243,"period_min":91.736672216591,"perigee_km":359.19492544774,"apogee_km":360.2568126359,"semimajor_km":6737.8628690418,"source":"CELESTRAK","updated_at":"2026-05-25T13:38:19.397439Z"}}}